20030609,35
20030707,35
20030807,35
20030908,35
20031007,35
20031107,35
20031208,35
20040107,40
20040209,40
20040308,50
20040407,50
20040507,50
20040607,50
20040707,50
20040809,50
20040907,50
20041007,50
20041108,50
20041207,50
20050107,50
20050207,50
20050307,50
20050407,50
20050509,50
20050607,50
20050707,50
20050808,60
20050907,60
20051007,60
20051107,60
20051207,60
20060110,70
20060207,70
20060307,70
20060407,75
20060508,75
20060607,75
20060707,75
20060807,75
20060907,75
20061010,80
20061107,80
20061207,80
20070109,80
20070207,80
20070307,80
20070409,80
20070507,80
20070607,80
20070709,80
20070807,90
20070907,90
20071009,90
20071107,90
20071207,90
20080107,90
20080207,90
20080307,90
20080407,100
20080507,100
20080609,100
20080707,100
20080807,100
20080908,100
20081007,100
20081107,100
20081208,100
20090107,100
20090209,100
20090309,100
20090407,100
20090507,100
20090608,100
20090707,100
20090807,100
20090907,100
20091007,100
20091109,100
20091207,100
20100107,100
20100208,100
20100308,100
20100407,100
20100507,100
20100607,100
20100707,100
20100809,100
20100907,100
20101007,100
20101108,100
20101207,100
20110107,100
20110207,100
20110307,100
20110407,100
20110509,100
20110607,100
20110707,100
20110808,100
20110907,100
20111007,100
20111107,100
20111207,100
20120110,100
20120207,100
20120307,100
20120409,100
20120507,100
20120607,100
20120709,100
20120807,100
20120907,70
20121009,70
20121107,70
20121207,70
20130107,70
20130207,70
20130307,70
20130408,70
20130507,70
20130607,70
20130708,70
20130807,70
20130909,70
20131007,70
20131107,70
20131209,70
20140107,70
20140207,70
20140307,70
20140407,70
20140507,70
20140609,70
20140707,70
20140807,70
20140908,70
20141007,70
20141107,70
20141208,70
20150107,70
20150209,50
20150309,50
20150407,50
20150507,50
20150608,50
20150707,50
20150807,50
20150907,50
20151007,50
20151109,50
20151207,50
20160107,50
20160208,50
20160307,50
20160407,50
20160509,50
20160607,50
20160707,50
20160808,50
20160907,50
20161007,50
20161107,30
20161207,30
20170110,30
20170207,30
20170307,30
20170407,30
20170508,30
20170607,30
20170707,30
20170807,30
20170907,30
20171010,30
20171107,30
20171207,30
20180109,30
20180207,20
20180307,20
20180409,20
20180507,20
20180607,20
20180709,20
20180807,20
20180907,20
20181009,20
20181107,20
20181207,20
20190107,20
20190207,10
20190307,10
20190408,10
20190507,10
20190607,10
20190708,10
20190807,10
20190909,10
20191007,10
20191107,10
20191209,10
20200107,10
20200207,10
20200309,10
20200407,10
20200507,10
20200608,10
20200707,10
20200807,10
20200907,10
20201007,10
20201109,10
20201207,5
20210107,5
20210208,5
20210308,5
20210407,5
20210507,5
20210607,5
20210707,5
20210810,5
20210907,5
20211007,5
20211108,5
20211207,5
20220107,5
20220207,5
20220307,5
20220407,5
20220509,5
20220607,5
20220707,5
20220808,5
20220907,5
20221007,5
20221107,5
20221207,5
20230110,5
20230207,5
20230307,5
20230407,5
20230508,5
20230607,5
20230707,5
20230807,5
20230907,5
20231010,5
20231107,5
20231207,5
20240109,5
20240207,5
20240307,5
20240408,5
20240507,5
